Weather past 2 weeks in Mamoutzou, Mayotte

Now
79 °F

Warm.


Feels Like: 81 °F
Forecast: 79 / 83 °F
Wind: 6 mph from South

Location: Dzaoudzi / Pamanzi Mayotte

Current Time: May 29, 2015 at 7:25:06 PM

Latest Report: May 29, 2015 at 7:00 PM


Visibility: N/A

Pressure: 29.95 "Hg

Humidity: 65%

Dew point: 66 °F

Location of MamoutzouLocation

Historic Weather in Mamoutzou — Graph

°F

Mamoutzou temperature yesterday

Maximum temperature yesterday: 86 °F (at 10:30 AM)
Minimum temperature yesterday: 75 °F (at 2:30 AM)
Average temperature yesterday: 81 °F

Past Weeks' High & Low Weather Summary

 TemperatureHumidityPressure
High90 °F (May 17, 12:00 PM)94% (May 26, 3:00 AM)30.04 "Hg (May 26, 3:00 AM)
Low73 °F (May 27, 3:00 AM)52% (May 21, 11:00 AM)29.89 "Hg (May 16, 2:38 PM)
Average82 °F68%29.97 "Hg
* Reported May 14 6:00 PM — May 29 6:07 PM, Mamoutzou, Weather by CustomWeather, © 2015

Note: Actual official high and low records may vary slightly from our data, if they occured in-between our weather recording intervals... More about our weather records

Advertising

Mamoutzou weather history for previous 24 hours

 ConditionsComfort  
Time TempWeatherWind HumidityBarometerVisibility
6:07 PM
Fri, May 29
79 °FClear.8 mph65%29.95 "Hg10 mi
5:30 PM81 °FSunny.9 mph62%29.95 "Hg10 mi
5:00 PM82 °FSunny.8 mph58%29.92 "Hg10 mi
4:30 PM84 °FPassing clouds.9 mph58%29.92 "HgN/A
4:00 PM84 °FSunny.8 mph55%29.92 "Hg10 mi
3:30 PM84 °FPassing clouds.8 mph58%29.92 "HgN/A
3:00 PM84 °FPassing clouds.9 mph58%29.92 "HgN/A
2:30 PM84 °FPassing clouds.9 mph58%29.92 "HgN/A
2:00 PM84 °FPassing clouds.10 mph58%29.92 "HgN/A
1:30 PM84 °FPassing clouds.10 mph58%29.92 "HgN/A
1:00 PM86 °FPassing clouds.12 mph59%29.95 "HgN/A
12:30 PM84 °FPassing clouds.12 mph58%29.95 "HgN/A
12:00 PM84 °FPassing clouds.12 mph58%29.95 "HgN/A
11:30 AM86 °FPassing clouds.12 mph59%29.98 "HgN/A
11:00 AM84 °FPassing clouds.13 mph62%29.98 "HgN/A
10:30 AM86 °FPassing clouds.13 mph62%29.98 "HgN/A
10:00 AM84 °FPassing clouds.13 mph62%30.01 "HgN/A
9:30 AM84 °FPassing clouds.13 mph62%30.01 "HgN/A
9:00 AM84 °FPassing clouds.12 mph62%30.01 "HgN/A
8:30 AM84 °FPassing clouds.12 mph62%29.98 "HgN/A
8:00 AM82 °FPassing clouds.12 mph66%29.98 "HgN/A
7:30 AM82 °FPassing clouds.14 mph66%29.98 "HgN/A
7:00 AM81 °FPassing clouds.14 mph66%29.95 "HgN/A
6:30 AM81 °FPassing clouds.13 mph66%29.95 "HgN/A
6:00 AM81 °FPassing clouds.15 mph66%29.95 "HgN/A
5:30 AM81 °FPassing clouds.16 mph62%29.95 "HgN/A
5:00 AM81 °FPassing clouds.17 mph62%29.92 "HgN/A
4:30 AM81 °FWarm.15 mph62%29.92 "HgN/A
4:00 AM81 °FWarm.14 mph62%29.92 "HgN/A
3:30 AM81 °FWarm.13 mph62%29.92 "HgN/A
3:00 AM81 °FWarm.12 mph62%29.92 "HgN/A
2:30 AM79 °FWarm.8 mph65%29.92 "HgN/A
1:00 AM79 °FWarm.7 mph70%29.95 "HgN/A
12:30 AM79 °FWarm.7 mph70%29.95 "HgN/A
12:00 AM79 °FWarm.8 mph70%29.95 "HgN/A
11:30 PM
Thu, May 28
79 °FWarm.7 mph74%29.98 "HgN/A
11:00 PM79 °FWarm.6 mph74%29.98 "HgN/A
10:30 PM79 °FWarm.5 mph70%29.98 "HgN/A
10:00 PM79 °FWarm.6 mph74%29.98 "HgN/A
9:30 PM79 °FWarm.7 mph74%29.98 "HgN/A
9:00 PM81 °FWarm.6 mph70%29.98 "HgN/A
8:30 PM81 °FWarm.7 mph70%29.98 "HgN/A
8:00 PM81 °FWarm.7 mph70%29.98 "HgN/A
7:30 PM81 °FWarm.8 mph70%29.98 "HgN/A
7:00 PM81 °FWarm.8 mph70%29.98 "HgN/A
Weather by CustomWeather, © 2015

See weather overviewHow to use our weather pages